Temp
-13 -13 -13 -13 -13 -13 -14 -13 -13 -14 -14 -13 -14 -14 -14 -14 -14 -14 -14 -14 -14 -14 -14 -14 -14 -14 -14 -14 -14 -14 -14 -14 -14 -14 -14 -14 -14 -14 -14 -14 -14 -14
-13 -13 -13 -13 -13 -13 -14 -14 -14 -14 -14 -14 -14 -14 -14 -14 -14 -14 -14 -14 -14 -14 -14 -14 -14 -14 -14 -14 -14 -14 -14 -14 -14 -14 -14 -14 -14 -14 -14 -14 -14 -14
-13 -13 -13 -13 -13 -13 -14 -13 -14 -14 -14 -14 -14 -14 -14 -14 -14 -14 -14 -14 -14 -14 -14 -14 -14 -14 -14 -14 -14 -14 -14 -14 -14 -14 -14 -14 -14 -14 -14 -14 -14 -14
-14 -13 -13 -13 -13 -13 -14 -14 -14 -14 -14 -14 -14 -14 -14 -14 -14 -14 -15 -15 -15 -15 -15 -14 -14 -14 -14 -14 -14 -14 -14 -14 -14 -14 -14 -14 -14 -14 -14 -14 -14 -14
-14 -13 -13 -13 -13 -13 -14 -14 -14 -14 -14 -14 -14 -14 -14 -14 -14 -15 -15 -15 -15 -15 -15 -15 -15 -15 -14 -14 -14 -14 -14 -15 -15 -15 -15 -14 -14 -14 -14 -14 -14 -14
-13 -13 -13 -13 -13 -14 -14 -14 -14 -14 -14 -14 -14 -14 -14 -14 -14 -15 -15 -15 -15 -15 -15 -15 -15 -15 -14 -14 -14 -14 -15 -15 -15 -15 -15 -14 -14 -14 -14 -14 -14 -14
-13 -13 -13 -13 -13 -14 -14 -14 -14 -14 -14 -14 -14 -14 -15 -15 -15 -15 -15 -15 -15 -15 -15 -15 -15 -15 -15 -15 -15 -15 -15 -15 -15 -15 -15 -14 -14 -14 -14 -14 -14 -14
-13 -13 -14 -14 -14 -14 -14 -14 -14 -14 -14 -14 -14 -15 -15 -15 -15 -15 -15 -15 -15 -15 -15 -15 -15 -15 -15 -15 -15 -15 -15 -15 -15 -15 -15 -15 -15 -15 -14 -14 -14 -14
-13 -13 -14 -14 -14 -14 -14 -14 -14 -14 -14 -14 -15 -15 -15 -15 -15 -15 -15 -15 -15 -15 -15 -15 -15 -15 -15 -15 -15 -15 -15 -15 -15 -15 -15 -15 -15 -15 -15 -15 -14 -14
-13 -13 -14 -14 -14 -14 -14 -14 -15 -15 -15 -15 -15 -15 -15 -15 -15 -15 -15 -15 -15 -15 -15 -15 -15 -15 -15 -15 -15 -15 -15 -15 -15 -15 -15 -15 -15 -15 -15 -15 -15 -15
-13 -13 -13 -14 -14 -14 -14 -15 -15 -15 -15 -15 -15 -15 -15 -15 -16 -16 -16 -16 -15 -15 -15 -15 -15 -15 -15 -15 -15 -15 -15 -15 -15 -15 -15 -15 -15 -15 -15 -15 -15 -15
-13 -13 -14 -14 -14 -14 -15 -15 -15 -15 -15 -15 -15 -15 -15 -16 -16 -16 -16 -16 -16 -15 -15 -15 -15 -15 -15 -15 -15 -15 -15 -15 -15 -15 -15 -15 -15 -15 -15 -15 -15 -15
-14 -14 -14 -14 -14 -15 -15 -15 -15 -15 -15 -15 -15 -15 -15 -16 -16 -16 -16 -16 -16 -15 -15 -15 -15 -15 -15 -15 -15 -15 -15 -15 -15 -15 -16 -16 -16 -15 -15 -15 -15 -15
-14 -14 -14 -14 -15 -15 -15 -15 -15 -15 -15 -15 -15 -15 -15 -15 -16 -16 -16 -15 -16 -16 -15 -15 -15 -15 -15 -15 -15 -15 -15 -15 -15 -15 -16 -16 -16 -16 -16 -15 -15 -15
-14 -14 -14 -15 -15 -15 -15 -15 -15 -15 -15 -15 -15 -15 -15 -15 -15 -15 -15 -15 -15 -16 -16 -15 -15 -15 -15 -15 -15 -15 -15 -15 -15 -15 -15 -16 -16 -16 -16 -16 -15 -15
-14 -15 -15 -15 -15 -15 -15 -15 -15 -15 -15 -15 -15 -15 -15 -15 -15 -15 -15 -15 -16 -16 -16 -16 -15 -15 -15 -15 -15 -15 -15 -15 -15 -15 -15 -15 -15 -16 -16 -16 -15 -15
-15 -15 -15 -15 -15 -15 -15 -15 -15 -15 -15 -15 -15 -16 -16 -15 -15 -15 -15 -15 -16 -16 -16 -16 -15 -15 -15 -16 -16 -16 -16 -16 -15 -15 -15 -15 -15 -15 -15 -15 -15 -15
-15 -15 -15 -15 -16 -15 -15 -15 -15 -15 -15 -15 -15 -15 -15 -15 -15 -15 -15 -15 -15 -16 -16 -16 -16 -15 -15 -16 -16 -16 -16 -16 -15 -15 -15 -15 -15 -15 -15 -15 -15 -16
-15 -15 -15 -15 -16 -15 -15 -15 -15 -15 -15 -15 -15 -15 -15 -15 -15 -15 -15 -15 -16 -16 -16 -16 -16 -15 -15 -16 -16 -16 -16 -16 -16 -16 -16 -16 -16 -16 -16 -16 -16 -16
-15 -15 -16 -15 -16 -15 -15 -15 -15 -15 -15 -15 -16 -16 -16 -16 -15 -15 -15 -16 -16 -16 -16 -16 -15 -15 -15 -16 -16 -16 -16 -16 -16 -16 -16 -16 -16 -16 -16 -16 -16 -16
-15 -16 -16 -16 -15 -16 -16 -16 -16 -16 -16 -15 -16 -16 -16 -16 -16 -15 -16 -16 -16 -16 -16 -15 -15 -15 -15 -15 -16 -16 -16 -16 -16 -16 -16 -16 -16 -16 -16 -16 -16 -16
-16 -16 -16 -16 -16 -16 -16 -16 -16 -16 -16 -16 -16 -16 -16 -16 -16 -16 -16 -16 -16 -16 -15 -15 -15 -15 -15 -16 -16 -16 -16 -16 -16 -16 -16 -16 -16 -16 -16 -16 -16 -16
-16 -16 -16 -16 -16 -16 -16 -16 -16 -16 -16 -16 -16 -16 -16 -16 -16 -16 -16 -16 -16 -16 -16 -16 -16 -16 -16 -16 -16 -16 -16 -16 -16 -16 -16 -16 -16 -16 -16 -16 -16 -16
-16 -16 -16 -16 -16 -16 -16 -16 -16 -16 -16 -16 -16 -16 -16 -16 -16 -16 -16 -16 -16 -16 -16 -16 -16 -16 -16 -16 -16 -16 -16 -16 -16 -16 -16 -16 -16 -16 -16 -17 -17 -17
-16 -16 -16 -16 -16 -16 -16 -16 -16 -16 -16 -16 -16 -16 -16 -16 -16 -16 -16 -16 -16 -16 -16 -16 -16 -16 -16 -16 -16 -16 -16 -16 -16 -17 -17 -17 -17 -17 -17 -17 -17 -17
-16 -16 -16 -16 -16 -16 -16 -16 -16 -17 -17 -17 -16 -16 -16 -16 -16 -16 -16 -16 -16 -16 -16 -16 -16 -16 -16 -16 -17 -17 -17 -17 -17 -17 -17 -17 -17 -17 -17 -17 -17 -17
Height
5763 5764 5766 5767 5768 5769 5771 5772 5772 5773 5775 5776 5777 5779 5780 5781 5782 5784 5785 5786 5787 5788 5789 5790 5790 5791 5791 5792 5793 5794 5795 5795 5795 5796 5797 5797 5797 5798 5798 5798 5798 5799
5760 5761 5763 5765 5766 5767 5768 5770 5770 5772 5773 5774 5776 5777 5778 5780 5781 5782 5783 5784 5785 5786 5787 5788 5788 5789 5790 5790 5791 5792 5793 5793 5793 5794 5795 5796 5796 5797 5797 5797 5797 5797
5756 5759 5761 5762 5763 5764 5766 5768 5768 5769 5771 5772 5774 5775 5777 5778 5779 5780 5781 5782 5783 5784 5785 5786 5786 5787 5788 5789 5789 5791 5791 5791 5791 5792 5793 5794 5794 5795 5795 5795 5796 5796
5754 5756 5757 5759 5759 5760 5763 5765 5766 5767 5768 5770 5771 5773 5775 5776 5777 5778 5779 5780 5781 5782 5782 5783 5784 5785 5786 5787 5788 5789 5790 5790 5790 5791 5791 5792 5792 5793 5793 5794 5794 5794
5753 5753 5753 5755 5757 5758 5760 5762 5763 5764 5766 5767 5769 5771 5772 5774 5775 5776 5777 5778 5779 5780 5780 5781 5782 5783 5784 5785 5786 5787 5788 5789 5789 5790 5790 5790 5791 5791 5791 5792 5792 5792
5752 5751 5751 5753 5755 5756 5757 5759 5760 5762 5763 5765 5766 5768 5770 5771 5773 5774 5775 5776 5777 5777 5778 5779 5779 5780 5781 5782 5784 5785 5786 5787 5788 5788 5788 5789 5789 5789 5789 5790 5790 5790
5750 5750 5750 5752 5753 5753 5755 5757 5758 5760 5761 5763 5764 5766 5767 5769 5770 5771 5772 5773 5774 5775 5776 5777 5777 5778 5779 5780 5781 5783 5784 5785 5786 5786 5787 5787 5788 5788 5788 5788 5788 5788
5747 5748 5749 5750 5750 5751 5753 5755 5756 5758 5759 5761 5762 5763 5765 5766 5767 5769 5770 5771 5772 5773 5774 5775 5776 5776 5777 5778 5779 5780 5781 5782 5783 5784 5784 5785 5785 5786 5786 5786 5786 5787
5745 5745 5746 5747 5747 5749 5750 5752 5754 5756 5757 5759 5760 5761 5763 5764 5765 5766 5768 5769 5770 5771 5772 5773 5774 5775 5776 5776 5777 5778 5779 5780 5781 5782 5782 5783 5783 5783 5784 5784 5785 5785
5742 5743 5743 5744 5745 5746 5748 5750 5752 5754 5755 5756 5758 5759 5761 5762 5763 5764 5765 5767 5768 5769 5770 5771 5772 5772 5773 5774 5775 5776 5777 5777 5778 5779 5780 5780 5780 5780 5781 5782 5783 5783
5739 5740 5741 5741 5742 5744 5746 5748 5750 5752 5753 5754 5756 5757 5758 5760 5761 5762 5763 5764 5766 5767 5768 5769 5769 5770 5771 5772 5773 5774 5774 5775 5776 5777 5777 5777 5778 5778 5779 5780 5781 5780
5736 5737 5738 5739 5740 5742 5744 5746 5747 5749 5751 5752 5754 5755 5756 5758 5759 5760 5761 5762 5763 5765 5766 5767 5767 5768 5769 5769 5770 5771 5772 5773 5774 5774 5775 5775 5775 5775 5776 5777 5778 5778
5733 5735 5736 5738 5739 5740 5742 5744 5745 5747 5748 5750 5752 5753 5754 5755 5756 5758 5759 5760 5761 5762 5763 5764 5765 5766 5766 5767 5768 5768 5769 5770 5770 5772 5772 5772 5773 5773 5773 5774 5776 5776
5732 5733 5735 5736 5738 5739 5741 5742 5744 5745 5747 5748 5749 5750 5751 5753 5754 5755 5756 5757 5758 5759 5760 5762 5763 5763 5764 5765 5765 5766 5766 5766 5767 5768 5769 5770 5770 5770 5770 5771 5772 5774
5731 5732 5734 5735 5737 5739 5740 5742 5743 5744 5745 5747 5747 5748 5750 5751 5752 5753 5754 5755 5756 5756 5757 5759 5760 5761 5761 5762 5763 5763 5763 5764 5764 5765 5766 5767 5767 5767 5767 5768 5768 5770
5729 5731 5732 5733 5735 5737 5739 5741 5742 5743 5744 5745 5746 5747 5748 5749 5749 5750 5751 5752 5753 5754 5754 5755 5757 5758 5759 5759 5759 5760 5760 5761 5761 5762 5763 5763 5764 5764 5765 5765 5766 5767
5728 5730 5731 5732 5733 5736 5738 5739 5740 5741 5742 5743 5744 5745 5746 5746 5747 5747 5748 5749 5750 5751 5751 5752 5753 5754 5755 5756 5756 5757 5757 5758 5758 5759 5759 5760 5761 5762 5762 5763 5763 5763
5727 5729 5730 5731 5733 5735 5737 5738 5738 5739 5740 5741 5742 5742 5743 5744 5744 5745 5746 5746 5747 5747 5748 5748 5749 5750 5751 5752 5753 5754 5755 5755 5755 5756 5757 5757 5758 5759 5759 5760 5760 5760
5725 5727 5729 5730 5732 5733 5735 5735 5736 5737 5737 5738 5739 5740 5740 5741 5741 5742 5742 5743 5743 5744 5744 5745 5746 5746 5747 5748 5749 5750 5751 5752 5753 5754 5754 5755 5755 5755 5756 5757 5757 5757
5724 5726 5727 5728 5729 5731 5732 5733 5733 5734 5735 5735 5736 5737 5737 5738 5738 5738 5739 5739 5740 5741 5742 5742 5742 5742 5743 5744 5745 5747 5748 5749 5750 5751 5751 5751 5752 5752 5753 5753 5754 5754
5722 5723 5724 5725 5727 5728 5729 5730 5731 5732 5732 5733 5733 5734 5735 5736 5736 5736 5736 5737 5738 5738 5739 5739 5740 5740 5740 5741 5742 5744 5745 5746 5747 5747 5747 5748 5748 5749 5749 5750 5750 5750
5720 5721 5722 5723 5724 5725 5726 5727 5728 5729 5730 5730 5730 5731 5732 5733 5734 5734 5735 5735 5736 5736 5737 5737 5737 5738 5738 5739 5740 5741 5742 5743 5743 5744 5744 5744 5745 5746 5746 5746 5746 5747
5717 5718 5719 5720 5721 5722 5723 5725 5725 5726 5726 5727 5728 5729 5730 5730 5731 5732 5732 5733 5733 5734 5734 5735 5735 5735 5736 5737 5738 5739 5739 5739 5740 5740 5741 5741 5742 5742 5742 5743 5743 5742
5714 5715 5716 5718 5718 5719 5720 5722 5722 5723 5723 5724 5725 5726 5727 5728 5729 5729 5730 5730 5731 5731 5732 5732 5732 5733 5734 5734 5735 5735 5736 5736 5736 5737 5737 5738 5738 5738 5739 5739 5739 5738
5711 5712 5714 5715 5716 5716 5717 5718 5719 5720 5721 5722 5723 5723 5724 5725 5726 5726 5727 5727 5728 5729 5729 5730 5730 5730 5731 5731 5732 5732 5732 5733 5733 5734 5734 5734 5734 5734 5734 5735 5735 5734
5708 5709 5710 5711 5712 5713 5713 5714 5715 5717 5718 5719 5720 5721 5721 5722 5722 5723 5724 5724 5725 5726 5726 5727 5727 5727 5728 5728 5728 5729 5729 5730 5730 5730 5730 5730 5730 5730 5729 5729 5730 5730
Wind_Speed
24 26 27 27 25 26 29 29 24 21 21 21 20 20 20 20 19 18 18 18 19 19 18 18 19 20 20 20 19 19 18 18 19 19 19 17 17 16 16 16 16 15
27 27 28 30 27 26 29 30 27 24 23 22 22 21 21 20 19 19 19 19 19 19 19 19 20 21 21 21 20 19 19 19 20 20 19 18 18 17 17 18 18 17
29 28 29 30 28 26 29 29 27 26 24 23 23 22 22 21 20 20 19 19 19 19 20 20 21 21 21 21 21 20 19 20 20 20 20 19 19 19 19 19 19 18
30 30 31 29 27 25 27 28 27 26 24 23 23 23 22 22 20 19 19 19 19 19 20 21 21 21 21 21 21 19 19 19 20 20 19 19 18 19 19 19 19 19
30 30 26 27 28 27 27 27 26 25 24 22 23 23 23 22 20 19 18 19 19 20 21 21 21 21 21 21 21 20 19 19 19 20 19 18 18 18 19 19 19 19
29 26 21 27 31 31 28 27 25 24 22 21 23 24 24 20 18 18 18 18 19 20 20 20 20 20 21 21 21 20 20 20 20 21 20 19 18 18 17 18 18 18
27 24 21 27 30 30 28 26 24 23 21 22 24 24 21 18 17 17 17 18 19 19 19 20 20 20 21 21 20 20 20 21 21 21 21 20 18 17 16 16 17 17
26 23 23 26 27 27 26 23 22 21 22 22 22 20 18 17 17 17 17 18 18 18 18 19 19 20 20 20 20 20 21 21 21 21 21 20 19 18 16 16 16 16
26 23 23 25 25 24 22 20 20 21 21 20 18 18 17 17 17 17 18 18 18 18 18 18 19 20 20 21 20 21 21 22 22 22 21 20 19 19 18 16 16 15
26 24 24 24 23 22 20 19 20 21 20 18 18 18 18 18 19 19 19 19 19 18 18 19 19 20 20 21 20 20 20 21 22 22 22 21 21 20 19 17 17 17
24 24 25 25 24 22 20 20 20 20 19 19 18 18 18 19 19 19 19 20 19 19 20 20 20 20 21 21 20 20 20 21 22 22 23 23 22 22 20 18 18 18
24 24 26 27 24 21 21 21 20 20 19 20 19 19 19 19 19 20 21 21 20 21 21 21 21 21 22 22 23 23 23 23 23 23 23 23 23 23 22 20 19 20
20 23 25 25 22 21 20 19 20 20 19 20 20 20 21 20 21 22 22 21 22 22 23 22 23 23 23 24 25 26 26 26 25 24 23 23 23 23 23 22 21 21
17 22 24 22 19 18 18 17 18 19 18 19 20 22 22 22 22 22 22 22 22 23 24 24 23 23 23 23 24 25 26 26 25 24 23 23 23 24 24 24 24 23
18 21 23 22 19 16 15 16 17 18 18 19 21 22 22 22 23 22 22 23 23 24 26 26 25 25 24 23 22 23 23 24 24 23 23 23 24 24 24 25 26 26
18 18 19 19 16 14 14 16 17 18 19 20 20 21 21 22 23 23 23 23 24 25 26 27 27 27 26 25 24 23 23 23 23 22 22 22 23 24 25 26 28 28
19 19 18 18 17 16 16 16 17 19 19 20 20 21 22 22 24 24 24 23 24 25 26 27 27 28 28 27 26 25 24 23 23 22 22 22 23 24 25 27 28 29
23 23 22 20 19 18 18 18 19 19 20 21 22 23 23 24 25 25 25 25 25 24 24 25 27 28 28 28 28 27 24 23 22 21 21 22 23 24 25 26 28 29
25 25 23 21 20 19 19 20 20 20 20 21 22 23 24 25 26 26 28 28 25 22 20 20 22 24 26 28 29 28 25 22 20 20 21 22 23 24 25 25 26 27
26 25 25 23 23 21 20 20 21 21 22 23 24 23 23 23 22 21 23 23 21 20 18 16 16 18 21 26 29 28 24 22 21 21 22 23 23 23 23 24 25 25
27 27 27 25 25 23 22 23 24 24 23 23 23 22 21 20 17 15 16 18 19 19 18 16 16 15 16 19 24 24 22 22 22 23 23 23 22 21 21 22 23 24
28 28 28 27 26 25 25 25 26 25 24 24 23 22 21 19 17 17 17 18 19 19 18 18 18 16 15 16 19 22 22 23 24 24 24 23 22 22 22 24 25 26
30 29 29 27 26 27 26 25 24 25 26 26 25 24 23 21 20 20 20 20 20 19 19 19 18 17 17 17 19 21 23 24 24 24 24 24 24 25 26 26 27 28
29 29 28 26 26 27 27 25 24 25 26 26 26 25 24 23 22 22 21 21 20 19 18 18 18 18 18 19 20 21 23 24 25 25 26 27 28 28 28 28 28 30
27 27 27 27 27 28 28 28 27 27 27 27 27 26 25 24 24 23 23 22 20 19 18 18 19 19 20 20 21 23 24 25 26 27 29 30 30 31 31 30 30 32
25 27 28 28 29 30 30 30 30 29 29 28 27 26 26 26 26 26 25 24 22 21 21 22 22 22 22 22 23 24 25 26 27 29 30 31 32 32 33 34 35 36
Wind_Direction
259 258 253 254 255 245 230 217 224 246 248 241 239 236 233 232 234 239 243 247 250 251 253 256 260 263 264 265 265 264 264 261 258 255 253 253 253 254 254 254 256 257
262 261 255 253 251 239 225 223 238 250 245 240 239 235 232 232 236 242 243 245 247 249 253 255 259 262 263 264 264 264 262 258 255 252 250 249 250 251 252 254 258 261
262 260 258 252 243 232 226 231 243 246 240 239 239 235 232 233 239 245 244 244 245 247 252 255 257 259 261 262 263 263 261 257 254 252 250 250 250 251 251 254 258 261
264 266 265 244 228 228 230 235 241 239 235 237 237 235 233 235 241 244 245 244 245 248 252 254 255 255 257 259 260 261 259 257 255 253 252 252 252 253 255 256 259 261
268 274 262 227 224 236 235 236 240 234 231 236 237 234 233 237 241 242 243 245 248 251 252 252 251 252 254 256 257 257 256 255 254 253 253 252 253 256 259 261 262 262
267 271 247 221 231 239 235 238 238 229 230 237 237 234 233 235 238 239 242 246 250 251 250 249 248 248 249 251 253 255 254 253 253 254 254 253 254 256 260 263 264 264
264 265 242 228 232 233 234 239 236 228 234 242 241 236 231 230 233 236 240 243 244 244 244 245 245 244 246 247 250 252 253 253 252 253 255 254 254 256 258 262 264 265
261 259 243 234 235 234 235 236 232 232 239 244 241 233 227 227 229 232 234 235 236 237 238 241 243 245 246 248 250 251 252 252 251 252 253 254 255 255 256 259 262 264
254 252 245 242 239 232 226 224 226 233 238 241 238 230 226 225 225 226 228 231 233 234 237 241 244 247 248 249 251 251 252 253 252 252 253 254 256 256 256 258 259 258
245 246 245 240 228 217 213 216 222 228 234 236 233 228 226 223 221 223 228 232 235 236 239 244 246 247 248 248 249 251 253 256 257 256 255 255 256 257 258 258 259 258
240 244 241 228 214 208 209 215 221 224 227 227 226 226 225 222 222 226 232 238 240 241 241 244 247 247 246 245 246 249 254 259 261 261 258 255 255 257 257 257 259 259
236 236 229 218 210 206 207 213 219 218 218 219 221 225 224 223 227 232 238 243 246 247 245 245 248 250 249 249 250 254 259 262 262 262 259 254 252 254 255 256 257 258
227 223 218 214 210 207 206 211 213 212 214 217 220 225 226 226 230 235 239 243 246 249 248 246 247 251 253 255 257 259 261 261 260 259 256 252 249 249 252 253 253 254
220 215 213 210 206 204 205 207 209 211 214 218 223 227 229 230 234 236 240 243 246 248 249 247 246 247 252 257 259 259 258 258 259 257 255 252 248 247 250 252 251 250
219 208 204 203 201 202 204 207 212 215 218 222 228 233 236 239 242 242 244 246 249 250 251 249 246 245 250 256 259 257 255 256 258 258 258 255 251 250 250 252 253 253
213 204 203 206 207 210 211 212 216 219 223 229 235 240 244 247 249 250 250 249 250 252 253 252 249 247 249 254 256 254 253 253 254 257 259 259 258 256 255 256 258 259
214 214 217 217 218 221 219 221 225 228 233 238 241 245 249 251 253 254 252 250 251 252 253 253 252 250 249 251 252 252 252 250 249 252 256 260 262 262 262 263 263 264
217 220 222 222 225 228 229 232 236 239 242 244 246 248 250 253 255 255 254 253 252 251 250 251 253 252 250 248 249 249 249 248 249 253 258 262 265 267 267 266 265 265
220 222 225 227 232 234 237 242 245 247 250 251 252 252 252 256 259 257 254 252 249 246 246 250 256 257 252 247 245 245 243 245 251 259 264 267 268 268 268 268 267 267
225 225 226 230 235 238 241 246 248 249 250 253 256 257 257 260 262 258 249 244 241 242 244 250 259 262 255 247 244 242 241 245 256 264 268 269 269 269 269 270 270 270
228 228 230 233 236 238 240 244 248 249 247 248 253 255 255 256 254 248 242 238 239 242 246 252 260 264 259 249 244 243 245 252 261 266 269 269 268 268 270 272 273 274
230 232 234 237 239 241 243 247 251 252 247 244 247 250 251 250 245 240 238 238 241 246 252 258 262 262 258 250 246 248 253 259 263 266 267 266 265 267 270 272 273 273
232 235 237 239 241 244 247 248 250 250 247 244 245 248 249 250 248 245 243 243 245 250 254 259 260 258 255 252 251 253 257 260 262 263 262 262 264 267 269 271 272 272
233 235 237 240 244 248 249 246 243 244 245 244 244 247 249 251 252 252 250 249 249 252 254 254 254 254 255 255 255 257 258 260 261 261 261 263 265 267 269 271 271 272
234 236 239 242 245 247 248 247 243 240 241 243 245 248 251 253 254 254 253 251 250 251 252 251 250 252 255 257 258 259 259 260 262 263 264 265 267 269 270 271 270 272
241 244 244 245 245 245 247 248 245 242 243 245 247 249 252 253 254 254 252 251 250 250 250 250 252 255 257 259 261 262 262 263 264 265 266 267 269 271 272 272 273 273